K9SCH Weather Reports


Display with metric or nautical units.
time (UTC)temp
F
wind
direction
speed
MPH
gust
MPH
rain 1hr
in
rain 24hr
in
rain mn
in
humidity
%
barometer
mb
20260831054016 83 0.0 1.0 0.00 0.00 0.00 52 1012.6
20260831053016 83 293 2.0 8.0 0.00 0.02 0.00 52 1013.0
20260831052019 84 248 2.0 5.0 0.00 0.02 0.00 53 1013.0
20260831051016 84 248 2.0 7.0 0.00 0.02 0.00 53 1012.6
20260831050017 84 248 8.0 13.0 0.00 0.03 0.00 53 1012.6
20260831045016 84 270 12.0 16.0 0.00 0.04 0.00 53 1012.4
20260831044018 84 248 13.0 18.0 0.00 0.05 0.00 53 1012.5
20260831043018 85 270 11.0 18.0 0.00 0.05 0.00 51 1012.5
20260831042016 85 270 9.0 16.0 0.00 0.05 0.00 51 1012.3
20260831040018 89 248 14.0 24.0 0.00 0.07 0.00 43 1011.8
20260831035020 89 248 10.0 16.0 0.00 0.10 0.00 42 1011.4
20260831034018 90 248 15.0 22.0 0.00 0.10 0.00 41 1011.2
20260831033016 91 248 11.0 16.0 0.00 0.10 0.00 40 1010.9
20260831032017 92 225 10.0 17.0 0.00 0.10 0.00 40 1010.8
20260831031016 92 225 7.0 14.0 0.00 0.10 0.00 39 1010.5
20260831030018 94 225 4.0 9.0 0.00 0.10 0.00 37 1010.5
20260831025016 94 0.0 0.0 0.00 0.10 0.00 38 1010.1
20260831024017 95 0.0 0.0 0.00 0.10 0.00 37 1009.9
20260831023016 95 0.0 0.0 0.00 0.10 0.00 35 1009.7
20260831022016 96 0.0 0.0 0.00 0.10 0.00 34 1009.5
20260831021017 96 0.0 0.0 0.00 0.10 0.00 34 1009.3
20260831020016 97 0.0 1.0 0.00 0.10 0.00 33 1009.2
20260831015017 97 0.0 1.0 0.00 0.10 0.00 32 1009.2
20260831014017 97 0.0 1.0 0.00 0.10 0.00 32 1009.3
20260831013017 98 338 1.0 3.0 0.00 0.10 0.00 32 1009.3
20260831012037 98 0.0 1.0 0.00 0.10 0.00 31 1009.0
20260831011017 98 23 3.0 5.0 0.00 0.10 0.00 32 1009.1
20260831010018 97 338 3.0 5.0 0.00 0.10 0.00 32 1009.0
20260831005017 98 338 2.0 5.0 0.00 0.10 0.00 32 1009.1
20260831004018 98 338 1.0 5.0 0.00 0.10 0.00 32 1009.2
20260831003016 98 338 3.0 7.0 0.00 0.10 0.00 31 1009.3
20260831002036 99 338 2.0 6.0 0.00 0.10 0.00 31 1009.4
20260831001018 100 0 2.0 7.0 0.00 0.10 0.00 30 1009.3
20260831000016 101 338 2.0 5.0 0.00 0.10 0.00 29 1009.4
20260830235016 101 270 2.0 5.0 0.00 0.10 0.00 29 1009.5
20260830234036 101 225 1.0 6.0 0.00 0.10 0.00 29 1009.5
20260830233018 101 293 4.0 9.0 0.00 0.10 0.00 29 1009.6
20260830232017 101 270 2.0 6.0 0.00 0.10 0.00 29 1009.6
20260830231017 101 248 6.0 13.0 0.00 0.10 0.00 29 1009.8
20260830230018 100 293 3.0 6.0 0.00 0.10 0.00 30 1010.0
20260830225016 101 338 3.0 9.0 0.00 0.10 0.00 30 1010.2
20260830224038 100 270 3.0 7.0 0.00 0.10 0.00 29 1010.3
20260830223017 100 293 5.0 9.0 0.00 0.10 0.00 29 1010.4
20260830222017 100 270 2.0 10.0 0.00 0.10 0.00 30 1010.6
20260830221016 100 293 1.0 5.0 0.00 0.10 0.00 30 1010.8
20260830220018 99 23 1.0 6.0 0.00 0.10 0.00 30 1011.0
20260830215018 99 68 4.0 9.0 0.00 0.10 0.00 30 1011.2
20260830214016 100 270 4.0 9.0 0.00 0.10 0.00 30 1011.5
20260830213021 99 135 2.0 4.0 0.00 0.10 0.00 31 1011.6
20260830212016 100 293 4.0 8.0 0.00 0.10 0.00 31 1011.8
20260830211018 99 270 5.0 10.0 0.00 0.10 0.00 31 1012.0
20260830210047 100 0.0 4.0 0.00 0.10 0.00 31 1012.2
20260830205016 99 248 7.0 12.0 0.00 0.10 0.00 31 1012.4
20260830204015 99 315 1.0 7.0 0.00 0.10 0.00 32 1012.6
20260830203016 98 338 3.0 7.0 0.00 0.10 0.00 32 1012.6
20260830202036 98 293 1.0 7.0 0.00 0.10 0.00 32 1012.8
20260830201015 98 338 3.0 7.0 0.00 0.10 0.00 32 1012.9
20260830200016 98 293 2.0 8.0 0.00 0.10 0.00 33 1013.0
20260830195016 98 45 3.0 6.0 0.00 0.10 0.00 33 1013.1
20260830194018 98 338 1.0 6.0 0.00 0.10 0.00 33 1013.2
20260830193016 98 248 3.0 7.0 0.00 0.10 0.00 33 1013.4
20260830192035 98 293 2.0 7.0 0.00 0.10 0.00 34 1013.4
20260830191016 98 0.0 0.0 0.00 0.10 0.00 33 1013.7
20260830190015 97 0.0 5.0 0.00 0.10 0.00 34 1013.8
20260830185019 96 0 2.0 6.0 0.00 0.10 0.00 36 1013.7
20260830184015 96 23 3.0 7.0 0.00 0.10 0.00 35 1013.9
20260830183035 97 0.0 4.0 0.00 0.10 0.00 35 1014.1
20260830182020 96 0.0 1.0 0.00 0.10 0.00 35 1014.1
20260830181017 96 135 1.0 4.0 0.00 0.10 0.00 35 1014.2
20260830180019 95 0.0 1.0 0.00 0.10 0.00 36 1014.4
20260830175015 95 180 1.0 6.0 0.00 0.10 0.00 37 1014.5
20260830174017 94 68 1.0 4.0 0.00 0.10 0.00 37 1014.5
20260830173017 95 0.0 1.0 0.00 0.10 0.00 38 1014.8
20260830172037 94 0.0 1.0 0.00 0.10 0.00 38 1014.8
20260830171017 93 90 2.0 5.0 0.00 0.10 0.00 40 1014.7
20260830170035 94 0.0 1.0 0.00 0.10 0.00 39 1014.9
20260830165015 93 0.0 1.0 0.00 0.10 0.00 40 1014.7
20260830164017 92 0.0 5.0 0.00 0.10 0.00 40 1014.6
20260830163016 91 135 1.0 4.0 0.00 0.10 0.00 42 1014.5
20260830162017 91 158 2.0 4.0 0.00 0.10 0.00 43 1014.5
20260830161017 89 135 2.0 5.0 0.00 0.10 0.00 45 1014.4
20260830160037 88 113 4.0 8.0 0.00 0.10 0.00 47 1014.9
20260830155016 87 135 4.0 8.0 0.00 0.10 0.00 48 1014.9
20260830154017 86 113 5.0 10.0 0.00 0.10 0.00 50 1014.9
20260830153015 85 135 4.0 8.0 0.00 0.10 0.00 52 1014.8
20260830152019 84 135 4.0 10.0 0.00 0.10 0.00 55 1015.2
20260830151018 83 135 4.0 9.0 0.00 0.10 0.00 58 1015.2
20260830150015 82 135 4.0 6.0 0.00 0.10 0.00 59 1015.1
20260830145017 80 113 3.0 5.0 0.00 0.10 0.00 61 1015.2
20260830144036 80 113 4.0 6.0 0.00 0.10 0.00 62 1015.1
20260830143015 79 113 3.0 5.0 0.00 0.10 0.00 63 1015.0
20260830142017 79 135 4.0 7.0 0.00 0.10 0.00 63 1014.8
20260830141017 78 135 2.0 5.0 0.00 0.10 0.00 64 1014.8
20260830140016 79 135 3.0 6.0 0.00 0.10 0.00 63 1015.0
20260830135017 79 135 2.0 5.0 0.00 0.10 0.00 62 1015.2
20260830134017 79 135 4.0 7.0 0.00 0.10 0.00 61 1015.1
20260830133015 79 135 4.0 7.0 0.00 0.10 0.00 60 1014.8
20260830132016 79 135 2.0 5.0 0.00 0.10 0.00 60 1014.8
20260830131037 80 135 4.0 7.0 0.00 0.10 0.00 59 1014.8
20260830130016 80 135 4.0 7.0 0.00 0.10 0.00 59 1014.7
20260830125015 80 113 4.0 6.0 0.00 0.10 0.00 62 1014.6
20260830124035 80 113 6.0 9.0 0.00 0.10 0.00 59 1014.6
20260830123038 80 113 4.0 7.0 0.00 0.10 0.00 58 1014.5
20260830122015 79 113 3.0 6.0 0.00 0.10 0.00 62 1014.1
20260830121017 79 68 2.0 5.0 0.00 0.10 0.00 62 1013.9
20260830120039 79 90 4.0 6.0 0.00 0.10 0.00 62 1013.7
20260830115018 79 90 3.0 5.0 0.00 0.10 0.00 62 1013.7
20260830114017 79 90 3.0 5.0 0.00 0.10 0.00 62 1013.4
20260830113020 79 90 3.0 4.0 0.00 0.10 0.00 62 1013.5
20260830112019 78 90 2.0 4.0 0.00 0.10 0.00 64 1013.5
20260830111017 78 0.0 3.0 0.00 0.10 0.00 64 1013.7
20260830110017 78 0.0 0.0 0.00 0.10 0.00 65 1013.7
20260830105017 78 0.0 0.0 0.00 0.10 0.00 64 1013.5
20260830104019 78 0.0 0.0 0.00 0.10 0.00 64 1013.6
20260830103021 78 0.0 0.0 0.00 0.10 0.00 65 1013.5
20260830102038 78 0.0 0.0 0.00 0.10 0.00 64 1013.3
20260830101017 78 0.0 0.0 0.00 0.10 0.00 65 1013.0
20260830100019 79 0.0 0.0 0.00 0.10 0.00 63 1013.0
20260830095017 80 0.0 0.0 0.00 0.10 0.00 59 1012.9
20260830094019 81 0.0 0.0 0.00 0.10 0.00 56 1012.8
20260830093037 81 135 2.0 6.0 0.00 0.10 0.00 55 1012.7
20260830092018 81 135 3.0 7.0 0.00 0.10 0.00 56 1012.6
20260830091017 81 135 2.0 5.0 0.00 0.10 0.00 58 1012.5
20260830090021 81 90 5.0 10.0 0.00 0.10 0.00 54 1012.1
20260830085019 82 90 6.0 10.0 0.00 0.10 0.00 54 1011.8
20260830084017 82 90 7.0 11.0 0.00 0.10 0.00 54 1011.6
20260830083040 81 68 7.0 11.0 0.00 0.10 0.00 56 1011.6
20260830082038 81 90 5.0 9.0 0.00 0.10 0.00 58 1011.7
20260830081017 81 113 7.0 13.0 0.00 0.10 0.00 57 1011.5
20260830080017 82 90 6.0 9.0 0.00 0.10 0.00 57 1011.5
20260830075018 81 90 6.0 11.0 0.00 0.10 0.00 56 1011.2
20260830074019 81 68 7.0 10.0 0.00 0.10 0.00 57 1011.2
20260830073036 80 68 7.0 12.0 0.00 0.10 0.00 60 1011.3
20260830072017 80 90 6.0 11.0 0.00 0.10 0.00 61 1011.2
20260830071018 80 90 6.0 12.0 0.00 0.10 0.00 62 1011.5
20260830070019 79 90 8.0 13.0 0.00 0.10 0.10 65 1011.4
20260830065018 78 90 9.0 14.0 0.00 0.10 0.10 69 1011.5
20260830064016 77 90 8.0 12.0 0.00 0.10 0.10 71 1011.9
20260830063018 77 90 9.0 14.0 0.02 0.10 0.10 69 1012.1
20260830062016 77 90 11.0 17.0 0.02 0.10 0.10 70 1012.5
20260830061016 77 68 6.0 13.0 0.02 0.10 0.10 72 1012.9
20260830060019 76 45 8.0 17.0 0.03 0.10 0.10 74 1013.1
20260830055018 75 45 6.0 10.0 0.04 0.10 0.10 77 1012.9